| time (UTC) | temp F | wind direction | speed MPH | gust MPH | rain 1hr in | rain 24hr in | rain mn in | humidity % | barometer mb |
| 20260901041828 | 56 | 48 | 2.0 | 10.0 | 0.00 | 0.23 | 0.23 | 70 | 1033.1 |
| 20260901040322 | 56 | 344 | 2.0 | 5.0 | 0.00 | 0.23 | 0.23 | 69 | 1033.4 |
| 20260901034815 | 56 | 316 | 3.0 | 6.0 | 0.00 | 0.23 | 0.23 | 72 | 1033.3 |
| 20260901033350 | 56 | 301 | 0.0 | 6.0 | 0.00 | 0.23 | 0.23 | 73 | 1033.2 |
| 20260901031821 | 56 | 278 | 1.0 | 4.0 | 0.00 | 0.23 | 0.23 | 71 | 1033.2 |
| 20260901030316 | 57 | 277 | 0.0 | 1.0 | 0.00 | 0.23 | 0.23 | 70 | 1033.4 |
| 20260901024830 | 58 | 276 | 0.0 | 1.0 | 0.00 | 0.23 | 0.23 | 71 | 1032.7 |
| 20260901023344 | 58 | 276 | 0.0 | 3.0 | 0.00 | 0.23 | 0.23 | 68 | 1032.8 |
| 20260901021816 | 59 | 268 | 1.0 | 3.0 | 0.00 | 0.23 | 0.23 | 67 | 1032.7 |
| 20260901020332 | 59 | 265 | 0.0 | 3.0 | 0.00 | 0.23 | 0.23 | 67 | 1032.6 |
| 20260901014825 | 60 | 264 | 0.0 | 4.0 | 0.00 | 0.23 | 0.23 | 65 | 1033.2 |
| 20260901013320 | 60 | 259 | 0.0 | 6.0 | 0.00 | 0.23 | 0.23 | 63 | 1033.1 |
| 20260901011811 | 61 | 237 | 2.0 | 5.0 | 0.00 | 0.23 | 0.23 | 62 | 1032.7 |
| 20260901010326 | 61 | 235 | 0.0 | 2.0 | 0.00 | 0.23 | 0.23 | 61 | 1033.0 |
| 20260901004819 | 62 | 235 | 2.0 | 4.0 | 0.00 | 0.23 | 0.23 | 59 | 1033.3 |
| 20260901003334 | 63 | 234 | 4.0 | 9.0 | 0.00 | 0.23 | 0.23 | 56 | 1033.6 |
| 20260901001825 | 64 | 239 | 3.0 | 12.0 | 0.00 | 0.23 | 0.23 | 56 | 1033.4 |
| 20260901000339 | 64 | 232 | 5.0 | 14.0 | 0.00 | 0.23 | 0.23 | 57 | 1033.3 |
| 20260831234812 | 64 | 237 | 5.0 | 13.0 | 0.00 | 0.23 | 0.23 | 58 | 1033.4 |
| 20260831233327 | 64 | 189 | 2.0 | 12.0 | 0.00 | 0.23 | 0.23 | 59 | 1033.1 |
| 20260831231820 | 63 | 235 | 6.0 | 11.0 | 0.00 | 0.23 | 0.23 | 62 | 1033.4 |
| 20260831230334 | 63 | 185 | 5.0 | 14.0 | 0.00 | 0.23 | 0.23 | 62 | 1033.7 |
| 20260831224829 | 63 | 312 | 2.0 | 14.0 | 0.00 | 0.23 | 0.23 | 65 | 1033.7 |
| 20260831223317 | 64 | 247 | 5.0 | 12.0 | 0.00 | 0.23 | 0.23 | 64 | 1033.9 |
| 20260831221837 | 66 | 228 | 5.0 | 13.0 | 0.00 | 0.23 | 0.23 | 60 | 1033.7 |
| 20260831220323 | 66 | 237 | 3.0 | 12.0 | 0.00 | 0.23 | 0.23 | 57 | 1033.6 |
| 20260831214822 | 67 | 244 | 3.0 | 10.0 | 0.00 | 0.23 | 0.23 | 56 | 1033.6 |
| 20260831213316 | 69 | 299 | 2.0 | 11.0 | 0.00 | 0.23 | 0.23 | 55 | 1033.8 |
| 20260831211858 | 68 | 268 | 2.0 | 12.0 | 0.00 | 0.23 | 0.23 | 58 | 1033.9 |
| 20260831210323 | 68 | 216 | 3.0 | 9.0 | 0.00 | 0.23 | 0.23 | 58 | 1034.1 |
| 20260831204818 | 68 | 239 | 2.0 | 13.0 | 0.00 | 0.23 | 0.23 | 56 | 1034.2 |
| 20260831203401 | 68 | 276 | 7.0 | 11.0 | 0.00 | 0.23 | 0.23 | 56 | 1034.1 |
| 20260831201831 | 67 | 220 | 2.0 | 8.0 | 0.00 | 0.23 | 0.23 | 60 | 1034.2 |
| 20260831200325 | 67 | 268 | 3.0 | 9.0 | 0.00 | 0.23 | 0.23 | 58 | 1034.6 |
| 20260831194840 | 67 | 258 | 2.0 | 11.0 | 0.00 | 0.23 | 0.23 | 58 | 1034.7 |
| 20260831193313 | 66 | 259 | 4.0 | 10.0 | 0.00 | 0.23 | 0.23 | 56 | 1034.7 |
| 20260831191827 | 66 | 323 | 4.0 | 10.0 | 0.00 | 0.23 | 0.23 | 56 | 1035.0 |
| 20260831190321 | 66 | 252 | 4.0 | 12.0 | 0.00 | 0.23 | 0.23 | 64 | 1035.1 |
| 20260831184815 | 64 | 220 | 2.0 | 8.0 | 0.00 | 0.23 | 0.23 | 71 | 1035.2 |
| 20260831183330 | 64 | 245 | 2.0 | 13.0 | 0.00 | 0.23 | 0.23 | 68 | 1035.4 |
| 20260831181816 | 65 | 267 | 4.0 | 11.0 | 0.00 | 0.23 | 0.23 | 66 | 1035.4 |
| 20260831180337 | 64 | 254 | 4.0 | 10.0 | 0.00 | 0.23 | 0.23 | 64 | 1035.3 |
| 20260831174822 | 65 | 253 | 5.0 | 14.0 | 0.00 | 0.23 | 0.23 | 66 | 1035.5 |
| 20260831173318 | 63 | 172 | 2.0 | 9.0 | 0.00 | 0.23 | 0.23 | 73 | 1035.3 |
| 20260831171858 | 64 | 232 | 4.0 | 10.0 | 0.00 | 0.23 | 0.23 | 69 | 1035.3 |
| 20260831170313 | 64 | 230 | 2.0 | 11.0 | 0.00 | 0.23 | 0.23 | 67 | 1035.1 |
| 20260831164833 | 66 | 248 | 4.0 | 12.0 | 0.00 | 0.23 | 0.23 | 64 | 1035.0 |
| 20260831163320 | 64 | 254 | 4.0 | 12.0 | 0.00 | 0.23 | 0.23 | 63 | 1034.7 |
| 20260831161813 | 61 | 241 | 4.0 | 8.0 | 0.00 | 0.23 | 0.23 | 66 | 1034.1 |
| 20260831160328 | 60 | 32 | 0.0 | 2.0 | 0.00 | 0.23 | 0.23 | 87 | 1033.5 |
| 20260831154821 | 59 | 32 | 0.0 | 3.0 | 0.00 | 0.23 | 0.23 | 90 | 1033.5 |
| 20260831153316 | 58 | 31 | 0.0 | 5.0 | 0.00 | 0.23 | 0.23 | 91 | 1033.3 |
| 20260831151830 | 58 | 23 | 1.0 | 4.0 | 0.00 | 0.24 | 0.23 | 93 | 1033.2 |
| 20260831150323 | 55 | 16 | 1.0 | 4.0 | 0.01 | 0.24 | 0.23 | 92 | 1033.1 |
| 20260831144821 | 54 | 102 | 4.0 | 8.0 | 0.01 | 0.24 | 0.23 | 90 | 1033.3 |
| 20260831143336 | 53 | 39 | 2.0 | 9.0 | 0.01 | 0.24 | 0.23 | 91 | 1033.1 |
| 20260831141822 | 52 | 16 | 3.0 | 11.0 | 0.01 | 0.24 | 0.23 | 91 | 1033.1 |
| 20260831140315 | 52 | 38 | 4.0 | 11.0 | 0.00 | 0.23 | 0.22 | 92 | 1033.4 |
| 20260831134830 | 52 | 33 | 2.0 | 8.0 | 0.00 | 0.23 | 0.22 | 92 | 1033.6 |
| 20260831133324 | 52 | 37 | 2.0 | 9.0 | 0.00 | 0.23 | 0.22 | 92 | 1033.6 |
| 20260831131818 | 52 | 64 | 5.0 | 11.0 | 0.00 | 0.23 | 0.22 | 91 | 1033.6 |
| 20260831130313 | 52 | 52 | 6.0 | 13.0 | 0.00 | 0.23 | 0.22 | 91 | 1033.4 |
| 20260831124826 | 52 | 37 | 6.0 | 12.0 | 0.02 | 0.23 | 0.22 | 91 | 1033.0 |
| 20260831123321 | 52 | 23 | 0.0 | 8.0 | 0.06 | 0.23 | 0.22 | 90 | 1033.1 |
| 20260831121834 | 52 | 31 | 7.0 | 12.0 | 0.12 | 0.23 | 0.22 | 90 | 1033.1 |
| 20260831120321 | 53 | 21 | 4.0 | 8.0 | 0.19 | 0.23 | 0.22 | 89 | 1033.6 |
| 20260831114816 | 53 | 267 | 1.0 | 3.0 | 0.20 | 0.21 | 0.20 | 89 | 1034.8 |
| 20260831113331 | 54 | 267 | 0.0 | 1.0 | 0.16 | 0.17 | 0.16 | 87 | 1035.3 |
| 20260831111823 | 55 | 274 | 0.0 | 4.0 | 0.09 | 0.10 | 0.09 | 83 | 1035.5 |
| 20260831110317 | 57 | 22 | 0.0 | 1.0 | 0.03 | 0.04 | 0.03 | 76 | 1035.1 |
| 20260831104829 | 58 | 39 | 2.0 | 4.0 | 0.00 | 0.01 | 0.00 | 67 | 1034.0 |
| 20260831103324 | 58 | 40 | 0.0 | 3.0 | 0.00 | 0.01 | 0.00 | 61 | 1033.3 |
| 20260831101818 | 58 | 41 | 2.0 | 5.0 | 0.00 | 0.01 | 0.00 | 62 | 1032.8 |
| 20260831100332 | 59 | 41 | 3.0 | 10.0 | 0.00 | 0.01 | 0.00 | 62 | 1033.0 |
| 20260831094829 | 60 | 204 | 4.0 | 8.0 | 0.00 | 0.01 | 0.00 | 59 | 1033.1 |
| 20260831093317 | 61 | 241 | 2.0 | 9.0 | 0.00 | 0.01 | 0.00 | 54 | 1033.3 |
| 20260831091829 | 61 | 206 | 4.0 | 9.0 | 0.00 | 0.01 | 0.00 | 53 | 1033.2 |
| 20260831090323 | 60 | 276 | 2.0 | 6.0 | 0.00 | 0.01 | 0.00 | 54 | 1033.0 |
| 20260831084839 | 60 | 281 | 0.0 | 4.0 | 0.00 | 0.01 | 0.00 | 57 | 1033.0 |
| 20260831083341 | 60 | 281 | 2.0 | 7.0 | 0.00 | 0.01 | 0.00 | 56 | 1032.8 |
| 20260831081835 | 59 | 18 | 1.0 | 4.0 | 0.00 | 0.01 | 0.00 | 57 | 1032.7 |
| 20260831080328 | 59 | 19 | 0.0 | 3.0 | 0.00 | 0.01 | 0.00 | 60 | 1033.0 |
| 20260831074822 | 59 | 18 | 0.0 | 6.0 | 0.00 | 0.01 | 0.00 | 59 | 1033.1 |
| 20260831073337 | 58 | 4 | 1.0 | 5.0 | 0.00 | 0.01 | 0.00 | 60 | 1033.2 |
| 20260831071823 | 58 | 359 | 0.0 | 0.0 | 0.00 | 0.01 | 0.00 | 65 | 1033.3 |
| 20260831070345 | 57 | 359 | 0.0 | 2.0 | 0.00 | 0.01 | 0.00 | 64 | 1033.2 |
| 20260831064835 | 57 | 258 | 0.0 | 4.0 | 0.00 | 0.01 | 0.00 | 65 | 1033.3 |
| 20260831063329 | 58 | 240 | 0.0 | 0.0 | 0.00 | 0.01 | 0.00 | 67 | 1033.5 |
| 20260831061815 | 59 | 240 | 0.0 | 0.0 | 0.00 | 0.01 | 0.01 | 63 | 1033.4 |
| 20260831060330 | 59 | 241 | 1.0 | 8.0 | 0.00 | 0.01 | 0.01 | 61 | 1033.3 |
| 20260831054824 | 59 | 214 | 3.0 | 6.0 | 0.00 | 0.01 | 0.01 | 59 | 1033.3 |
| 20260831053318 | 59 | 247 | 0.0 | 4.0 | 0.00 | 0.01 | 0.01 | 61 | 1033.4 |
| 20260831051851 | 59 | 246 | 0.0 | 0.0 | 0.00 | 0.01 | 0.01 | 66 | 1033.1 |
| 20260831050324 | 59 | 246 | 0.0 | 0.0 | 0.00 | 0.01 | 0.01 | 64 | 1033.1 |
| 20260831044819 | 60 | 246 | 0.0 | 0.0 | 0.00 | 0.01 | 0.01 | 64 | 1033.2 |
| 20260831043335 | 60 | 247 | 0.0 | 0.0 | 0.00 | 0.01 | 0.01 | 61 | 1033.1 |